Regional Weather Roundup
Issued by NWS Cleveland, OH

Home | Current Version | Previous Version | Graphics & Text | Print | Product List | Glossary On
Versions: 1 2 3 4 5 6 7 8 9 10 11 12 13 14 15 16 17 18 19 20 21 22 23 24 25 26 27 28 29 30 31 32 33 34 35 36 37 38 39 40 41 42 43 44 45 46 47 48 49 50
000
ASUS41 KCLE 011410
RWRCLE
OHIO REGIONAL WEATHER ROUNDUP
NATIONAL WEATHER SERVICE CLEVELAND, OH
1000 AM EDT SAT AUG 01 2015

NOTE: "FAIR" INDICATES FEW OR NO CLOUDS BELOW 12,000 FEET WITH NO
SIGNIFICANT WEATHER AND/OR OBSTRUCTIONS TO VISIBILITY.

OHZ001>008-015>018-024>027-034-035-043-044-011500-
   NORTHWEST OHIO

CITY           SKY/WX    TMP DP  RH WIND       PRES   REMARKS
DEFIANCE       SUNNY     74  58  57 W6        29.98R
FINDLAY        SUNNY     73  60  63 W7        29.97S
TOLEDO EXPRESS SUNNY     72  59  63 W8        29.95S
TOLEDO EXEC    SUNNY     73  58  59 W6        29.96S
LIMA           SUNNY     73  59  61 W6        29.99S
$$

OHZ009>014-019>023-028>033-038-089-011500-
   NORTHEAST OHIO

CITY           SKY/WX    TMP DP  RH WIND       PRES   REMARKS
CLE-HOPKINS    SUNNY     74  60  61 W10       29.96S
CLE-LAKEFRONT  SUNNY     75  64  68 W12       29.93R
CUY CO. ARPT   PTSUNNY   75  63  64 W14       29.94S
LORAIN-ELYRIA  SUNNY     73  60  63 NW7       29.96R
ASHTABULA      SUNNY     74  58  57 NW9       29.94R
AKRON-CANTON   SUNNY     75  58  55 W7        29.96S
WOOSTER        SUNNY     73  57  57 NW9       29.97S
MANSFIELD      SUNNY     71  57  61 W8        29.98S
YOUNGSTOWN     MOSUNNY   74  61  63 W7        29.95R
$$

OHZ042-051>053-060>062-070>072-077>081-011500-
  SOUTHWEST OHIO

CITY           SKY/WX    TMP DP  RH WIND       PRES   REMARKS
CINC-COVINGTON MOSUNNY   75  61  61 CALM      30.02R
CINC-LUNKEN    SUNNY     76  64  66 W3        30.01S
HAMILTON       SUNNY     76  63  64 VRB3      30.02S
DAYTON         MOSUNNY   73  60  63 NW7       30.02S
WRIGHT-PAT AFB SUNNY     73  59  60 NW5       30.01R
DAYTON GENERAL SUNNY     74  56  53 NW7       30.01S
WILMINGTON     SUNNY     74  56  53 NW9       30.01S
$$

OHZ036-037-039>041-045>050-054>059-063>069-073>076-082>088-011500-
  CENTRAL AND SOUTHEAST OHIO

CITY           SKY/WX    TMP DP  RH WIND       PRES   REMARKS
COLUMBUS       MOSUNNY   76  56  49 NW3       29.98S
OSU AIRPORT    SUNNY     76  58  53 W9        29.99R
BOLTON FIELD   SUNNY     73  59  60 NW8       30.00R
RICKENBACK AFB SUNNY     71  61  71 CALM      29.99S
NEWARK         SUNNY     75  57  53 NW10      29.98S
MARION         SUNNY     74  58  57 NW7       29.99R
LANCASTER      SUNNY     75  59  57 N7        30.00R
ZANESVILLE     SUNNY     73  55  53 NW10      29.99R
NEW PHILLY     SUNNY     73  60  63 VRB6      29.97R
$$


USA.gov is the U.S. government's official web portal to all federal, state and local government web resources and services.